TimeAKST,TemperatureF,Dew PointF,Humidity,Sea Level PressureIn,VisibilityMPH,Wind Direction,Wind SpeedMPH,Gust SpeedMPH,PrecipitationIn,Events,Conditions,WindDirDegrees,DateUTC
12:16 AM,-0.4,-5.8,78,29.48,10.0,East,3.5,-,N/A,,Clear,80,2012-11-23 09:16:00
12:36 AM,1.4,-2.2,85,29.48,10.0,East,3.5,-,N/A,,Clear,80,2012-11-23 09:36:00
12:56 AM,1.4,-2.2,85,29.48,10.0,East,3.5,-,N/A,,Clear,80,2012-11-23 09:56:00
1:16 AM,-0.4,-2.2,92,29.48,10.0,ENE,3.5,-,N/A,,Clear,70,2012-11-23 10:16:00
1:36 AM,1.4,1.4,100,29.48,10.0,ENE,4.6,-,N/A,,Clear,70,2012-11-23 10:36:00
1:56 AM,1.4,-2.2,85,29.49,10.0,Calm,Calm,-,N/A,,Clear,0,2012-11-23 10:56:00
2:16 AM,1.4,-0.4,92,29.49,10.0,East,3.5,-,N/A,,Clear,90,2012-11-23 11:16:00
2:36 AM,3.2,-0.4,85,29.49,10.0,East,4.6,-,N/A,,Clear,80,2012-11-23 11:36:00
3:16 AM,3.2,1.4,92,29.50,10.0,East,4.6,-,N/A,,Clear,100,2012-11-23 12:16:00
3:36 AM,5.0,1.4,85,29.51,10.0,NE,3.5,-,N/A,,Partly Cloudy,50,2012-11-23 12:36:00
3:56 AM,5.0,1.4,85,29.51,10.0,East,5.8,-,N/A,,Scattered Clouds,90,2012-11-23 12:56:00
4:16 AM,5.0,1.4,85,29.52,10.0,East,4.6,-,N/A,,Overcast,80,2012-11-23 13:16:00
4:36 AM,6.8,3.2,85,29.52,10.0,East,3.5,-,N/A,,Scattered Clouds,80,2012-11-23 13:36:00
4:56 AM,6.8,3.2,85,29.52,10.0,East,4.6,-,N/A,,Mostly Cloudy,80,2012-11-23 13:56:00
5:16 AM,6.8,1.4,79,29.53,10.0,East,5.8,-,N/A,,Mostly Cloudy,80,2012-11-23 14:16:00
5:36 AM,6.8,3.2,85,29.54,10.0,East,4.6,-,N/A,,Scattered Clouds,90,2012-11-23 14:36:00
5:56 AM,6.8,3.2,85,29.54,10.0,Calm,Calm,-,N/A,,Mostly Cloudy,0,2012-11-23 14:56:00
6:16 AM,6.8,3.2,85,29.54,10.0,Calm,Calm,-,N/A,,Overcast,0,2012-11-23 15:16:00
6:36 AM,6.8,3.2,85,29.54,10.0,Calm,Calm,-,N/A,,Overcast,0,2012-11-23 15:36:00
7:16 AM,8.6,6.8,92,29.55,10.0,Calm,Calm,-,N/A,,Overcast,0,2012-11-23 16:16:00
7:36 AM,8.6,5.0,85,29.56,10.0,Calm,Calm,-,N/A,,Overcast,0,2012-11-23 16:36:00
7:56 AM,8.6,5.0,85,29.57,10.0,Calm,Calm,-,N/A,,Overcast,0,2012-11-23 16:56:00
8:16 AM,8.6,6.8,92,29.58,10.0,East,4.6,-,N/A,,Overcast,80,2012-11-23 17:16:00
8:36 AM,10.4,6.8,85,29.58,10.0,East,3.5,-,N/A,,Overcast,80,2012-11-23 17:36:00
8:56 AM,10.4,6.8,85,29.59,10.0,ENE,3.5,-,N/A,,Overcast,60,2012-11-23 17:56:00
9:16 AM,10.4,6.8,85,29.60,10.0,ESE,5.8,-,N/A,,Overcast,110,2012-11-23 18:16:00
9:36 AM,10.4,6.8,85,29.60,10.0,East,5.8,-,N/A,,Mostly Cloudy,90,2012-11-23 18:36:00
9:56 AM,10.4,6.8,85,29.61,10.0,NNE,3.5,-,N/A,,Mostly Cloudy,30,2012-11-23 18:56:00
10:16 AM,10.4,8.6,92,29.62,10.0,Calm,Calm,-,N/A,,Overcast,0,2012-11-23 19:16:00
10:36 AM,10.4,8.6,92,29.63,10.0,Calm,Calm,-,N/A,,Overcast,0,2012-11-23 19:36:00
10:56 AM,10.4,6.8,85,29.63,10.0,Calm,Calm,-,N/A,,Overcast,0,2012-11-23 19:56:00
11:16 AM,12.2,8.6,85,29.64,10.0,Calm,Calm,-,N/A,,Overcast,0,2012-11-23 20:16:00
11:36 AM,12.2,8.6,85,29.64,10.0,Calm,Calm,-,N/A,,Scattered Clouds,0,2012-11-23 20:36:00
11:56 AM,12.2,8.6,85,29.64,10.0,Calm,Calm,-,N/A,,Mostly Cloudy,0,2012-11-23 20:56:00
12:16 PM,12.2,8.6,85,29.65,10.0,Calm,Calm,-,N/A,,Scattered Clouds,0,2012-11-23 21:16:00
12:36 PM,12.2,8.6,85,29.65,10.0,Calm,Calm,-,N/A,,Clear,0,2012-11-23 21:36:00
12:56 PM,12.2,8.6,85,29.66,10.0,Calm,Calm,-,N/A,,Clear,0,2012-11-23 21:56:00
1:16 PM,12.2,8.6,85,29.66,10.0,Calm,Calm,-,N/A,,Clear,0,2012-11-23 22:16:00
1:36 PM,10.4,6.8,85,29.66,10.0,Calm,Calm,-,N/A,,Mostly Cloudy,0,2012-11-23 22:36:00
1:56 PM,14.0,12.2,93,29.66,10.0,Calm,Calm,-,N/A,,Overcast,0,2012-11-23 22:56:00
2:16 PM,17.6,10.4,73,29.67,10.0,Calm,Calm,-,N/A,,Overcast,0,2012-11-23 23:16:00
2:36 PM,17.6,10.4,73,29.66,10.0,Calm,Calm,-,N/A,,Overcast,0,2012-11-23 23:36:00
2:56 PM,15.8,12.2,86,29.67,10.0,Calm,Calm,-,N/A,,Overcast,0,2012-11-23 23:56:00
3:16 PM,15.8,12.2,86,29.67,10.0,Calm,Calm,-,N/A,,Overcast,0,2012-11-24 00:16:00
3:36 PM,17.6,14.0,86,29.67,10.0,Calm,Calm,-,N/A,,Overcast,0,2012-11-24 00:36:00
3:56 PM,15.8,14.0,93,29.68,10.0,Calm,Calm,-,N/A,,Overcast,0,2012-11-24 00:56:00
4:16 PM,15.8,14.0,93,29.68,10.0,Calm,Calm,-,N/A,,Overcast,0,2012-11-24 01:16:00
4:36 PM,15.8,15.8,100,29.68,10.0,Calm,Calm,-,N/A,,Mostly Cloudy,0,2012-11-24 01:36:00
4:56 PM,15.8,14.0,93,29.68,10.0,Calm,Calm,-,N/A,,Overcast,0,2012-11-24 01:56:00
5:16 PM,12.2,10.4,92,29.68,10.0,East,3.5,-,N/A,,Mostly Cloudy,100,2012-11-24 02:16:00
5:36 PM,12.2,12.2,100,29.68,10.0,Calm,Calm,-,N/A,,Scattered Clouds,0,2012-11-24 02:36:00
5:56 PM,12.2,8.6,85,29.68,10.0,Calm,Calm,-,N/A,,Mostly Cloudy,0,2012-11-24 02:56:00
6:16 PM,12.2,10.4,92,29.69,10.0,Calm,Calm,-,N/A,,Partly Cloudy,0,2012-11-24 03:16:00
6:36 PM,10.4,8.6,92,29.69,10.0,Calm,Calm,-,N/A,,Clear,0,2012-11-24 03:36:00
6:56 PM,10.4,8.6,92,29.69,10.0,Calm,Calm,-,N/A,,Clear,0,2012-11-24 03:56:00
7:16 PM,8.6,3.2,79,29.70,10.0,Calm,Calm,-,N/A,,Clear,0,2012-11-24 04:16:00
7:36 PM,6.8,3.2,85,29.70,10.0,ENE,3.5,-,N/A,,Clear,60,2012-11-24 04:36:00
7:56 PM,6.8,5.0,92,29.70,10.0,Calm,Calm,-,N/A,,Clear,0,2012-11-24 04:56:00
8:16 PM,6.8,5.0,92,29.70,10.0,Calm,Calm,-,N/A,,Clear,0,2012-11-24 05:16:00
8:36 PM,5.0,-0.4,78,29.71,10.0,Calm,Calm,-,N/A,,Clear,0,2012-11-24 05:36:00
8:56 PM,3.2,-0.4,85,29.72,10.0,NE,3.5,-,N/A,,Clear,50,2012-11-24 05:56:00
9:16 PM,5.0,3.2,92,29.72,10.0,East,3.5,-,N/A,,Clear,80,2012-11-24 06:16:00
9:36 PM,5.0,1.4,85,29.72,10.0,ENE,3.5,-,N/A,,Clear,60,2012-11-24 06:36:00
9:56 PM,3.2,1.4,92,29.72,10.0,NE,3.5,-,N/A,,Clear,50,2012-11-24 06:56:00
10:16 PM,3.2,-2.2,78,29.73,10.0,ENE,3.5,-,N/A,,Clear,70,2012-11-24 07:16:00
10:36 PM,6.8,3.2,85,29.73,10.0,ENE,3.5,-,N/A,,Clear,60,2012-11-24 07:36:00
10:56 PM,3.2,-5.8,66,29.74,10.0,Calm,Calm,-,N/A,,Clear,0,2012-11-24 07:56:00
11:16 PM,1.4,-5.8,72,29.75,10.0,Calm,Calm,-,N/A,,Clear,0,2012-11-24 08:16:00
11:36 PM,-0.4,-0.4,100,29.75,10.0,East,3.5,-,N/A,,Clear,90,2012-11-24 08:36:00
11:56 PM,3.2,3.2,100,29.76,10.0,ENE,3.5,-,N/A,,Clear,60,2012-11-24 08:56:00